Norfork Lake Weather Center

Moon Phase Calendar



Norfork Lake Water Level
Online Cameras

 


      

Current Conditions in Baxter
5/22/2024 12:45:50 AM

73°F
Feels Like 74
Clouds
Humidity
100%
Pressure
29.74"
Wind
1 mph (SSW)
Dew Point
73°F
UV Index
0/10 (Low)
Visibility
6 mi

Hourly Forecast

Date & Time Wed, May 22
12:00 AM
Wed, May 22
1:00 AM
Wed, May 22
2:00 AM
Wed, May 22
3:00 AM
Wed, May 22
4:00 AM
Wed, May 22
5:00 AM
Wed, May 22
6:00 AM
Wed, May 22
7:00 AM
Wed, May 22
8:00 AM
Wed, May 22
9:00 AM
Wed, May 22
10:00 AM
Wed, May 22
11:00 AM
Wed, May 22
12:00 PM
Wed, May 22
1:00 PM
Wed, May 22
2:00 PM
Wed, May 22
3:00 PM
Wed, May 22
4:00 PM
Wed, May 22
5:00 PM
Wed, May 22
6:00 PM
Wed, May 22
7:00 PM
Wed, May 22
8:00 PM
Wed, May 22
9:00 PM
Wed, May 22
10:00 PM
Wed, May 22
11:00 PM
Thu, May 23
12:00 AM
Thu, May 23
1:00 AM
Thu, May 23
2:00 AM
Thu, May 23
3:00 AM
Thu, May 23
4:00 AM
Thu, May 23
5:00 AM
Thu, May 23
6:00 AM
Thu, May 23
7:00 AM
Thu, May 23
8:00 AM
Thu, May 23
9:00 AM
Thu, May 23
10:00 AM
Thu, May 23
11:00 AM
Thu, May 23
12:00 PM
Thu, May 23
1:00 PM
Thu, May 23
2:00 PM
Thu, May 23
3:00 PM
Thu, May 23
4:00 PM
Thu, May 23
5:00 PM
Thu, May 23
6:00 PM
Thu, May 23
7:00 PM
Thu, May 23
8:00 PM
Thu, May 23
9:00 PM
Thu, May 23
10:00 PM
Thu, May 23
11:00 PM
Condition
Rain

Clouds

Clouds

Clouds

Clouds

Clouds

Clear

Clear

Clouds

Clouds

Clouds

Clouds

Clouds

Clouds

Clouds

Clouds

Rain

Rain

Rain

Rain

Rain

Clouds

Clouds

Clouds

Clouds

Clouds

Clouds

Clouds

Rain

Rain

Rain

Rain

Rain

Clouds

Rain

Clouds

Clouds

Clouds

Clouds

Clouds

Rain

Clouds

Clouds

Clouds

Clouds

Clouds

Rain

Clouds
Temperature 72°F73°F71°F69°F66°F63°F59°F60°F63°F65°F67°F70°F78°F81°F83°F84°F79°F75°F75°F73°F70°F69°F67°F65°F64°F64°F63°F62°F62°F63°F63°F64°F66°F68°F69°F73°F74°F76°F77°F79°F78°F82°F81°F79°F74°F71°F69°F68°F
Feels Like 73°F74°F73°F70°F67°F63°F60°F61°F63°F66°F68°F70°F78°F83°F85°F86°F79°F76°F76°F74°F71°F70°F68°F66°F65°F64°F64°F63°F62°F63°F64°F65°F67°F69°F70°F73°F75°F76°F78°F79°F79°F85°F84°F79°F75°F72°F70°F69°F
Cloudiness 70%69%59%46%32%19%5%4%12%56%70%78%75%68%34%47%60%69%75%79%100%100%100%100%100%100%100%99%100%100%100%100%98%96%98%94%96%96%100%90%92%78%67%55%100%100%67%49%
Visibility 6 mi6 mi6 mi6 mi6 mi6 mi6 mi6 mi6 mi6 mi6 mi6 mi6 mi6 mi6 mi6 mi6 mi6 mi6 mi6 mi6 mi6 mi6 mi6 mi6 mi6 mi6 mi6 mi6 mi5 mi6 mi6 mi6 mi6 mi6 mi6 mi6 mi6 mi6 mi6 mi6 mi6 mi6 mi6 mi6 mi6 mi6 mi6 mi
Precipitation 100%80%0%0%0%0%0%0%4%0%0%0%0%0%0%0%68%100%100%100%100%80%80%80%80%80%0%0%92%100%100%100%97%80%88%84%77%74%0%24%100%77%73%86%48%0%32%0%
Humidity 99%100%99%99%98%96%97%97%92%86%80%72%62%59%55%53%71%91%92%93%95%96%96%97%96%96%97%98%99%99%99%99%98%94%92%81%79%75%74%70%82%65%65%75%87%91%96%97%
Dew Point 72°F73°F71°F68°F65°F62°F58°F59°F60°F61°F61°F61°F64°F65°F66°F66°F68°F72°F72°F70°F68°F68°F66°F64°F63°F63°F62°F61°F61°F62°F63°F63°F65°F66°F67°F66°F67°F67°F68°F68°F72°F69°F68°F71°F69°F68°F67°F67°F
Pressure 29.77"29.74"29.77"29.8"29.8"29.83"29.88"29.91"29.91"29.91"29.91"29.91"29.91"29.88"29.88"29.85"29.85"29.85"29.85"29.85"29.85"29.85"29.88"29.91"29.88"29.88"29.88"29.88"29.88"29.88"29.88"29.88"29.91"29.91"29.88"29.88"29.88"29.85"29.85"29.83"29.83"29.8"29.8"29.77"29.77"29.8"29.8"29.8"
Wind Speed 4 mph6.7 mph5.4 mph3.6 mph2.2 mph1.6 mph3.8 mph3.6 mph3 mph3.8 mph3.5 mph3.1 mph2.4 mph1.4 mph2.2 mph2.4 mph6.8 mph6 mph4.1 mph2.2 mph1.4 mph1.2 mph4.4 mph2.2 mph1.5 mph2.9 mph4 mph3.5 mph5.4 mph5.3 mph3.8 mph3.8 mph4.6 mph4.9 mph5.2 mph7 mph6.2 mph6.3 mph4.3 mph5.1 mph4.1 mph5.5 mph4.8 mph3.9 mph6.5 mph5.9 mph4.9 mph4.5 mph
Wind
Direction
270°
W
334°
NNW
328°
NNW
337°
NNW
351°
N
349°
N

N
337°
NNW
16°
NNE

N
348°
NNW
332°
NNW
286°
WNW
315°
NW
42°
NE
86°
E
146°
SE
141°
SE
161°
SSE
109°
ESE
155°
SSE
255°
WSW
229°
SW
248°
WSW
38°
NE
115°
ESE
143°
SE
129°
SE
170°
S
189°
S
214°
SW
205°
SSW
221°
SW
231°
SW
216°
SW
225°
SW
204°
SSW
199°
SSW
176°
S
171°
S
170°
S
201°
SSW
202°
SSW
157°
SSE
141°
SE
147°
SSE
132°
SE
132°
SE

Daily Forecast

Date High Low Precip. Humidity
Today
May 22

Rain
84 °F
59 °F
100%
59%
Thursday
May 23

Rain
82 °F
62 °F
100%
75%
Friday
May 24

Rain
79 °F
62 °F
100%
77%
Saturday
May 25

Rain
89 °F
65 °F
100%
69%
Sunday
May 26

Rain
94 °F
70 °F
100%
39%
Monday
May 27

Rain
77 °F
62 °F
100%
74%
Tuesday
May 28

Rain
71 °F
57 °F
100%
47%
Wednesday
May 29

Clear
82 °F
53 °F
0%
45%
Thursday
May 30

Clear
87 °F
59 °F
0%
40%
Friday
May 31

Clouds
88 °F
61 °F
0%
40%
Saturday
Jun 1

Clouds
86 °F
63 °F
0%
37%
Sunday
Jun 2

Rain
76 °F
64 °F
100%
97%
Monday
Jun 3

Rain
82 °F
58 °F
32%
34%
Tuesday
Jun 4

Clouds
77 °F
53 °F
0%
40%
Wednesday
Jun 5

Rain
73 °F
57 °F
100%
84%
Thursday
Jun 6

Clouds
77 °F
53 °F
0%
42%

Temperature 8-14 Day Outlook



Precipitation 8-14 Day Outlook






About Us
Contact Us
Site Map
Search Site
Advertise With Us
   
Norfork.USLakes.info
THE NORFORK LAKE WEBSITE

Copyright 2024, Lakes Online
Privacy    |    Legal